Home   Weather   Shiprock   Past weeks

Flag for USA Past Weather in Shiprock, New Mexico, USA — Yesterday and Last 2 Weeks

Now
34 °F

Overcast.


Feels Like: 30 °F
Forecast: 30 / 42 °F
Wind: 5 mph from Southeast

Location: Four Corners Regional Airport

Current Time: Jan 19, 2017 at 10:49:04 pm

Latest Report: Jan 19, 2017 at 9:53 pm


Visibility: 7 mi

Pressure: 29.78 "Hg (24.72 "Hg at 1492m altitude)

Humidity: 97%

Dew Point: 33 °F

Location of ShiprockLocation

Past Weather in Shiprock — Graph

°F

Shiprock Temperature Yesterday

Maximum temperature yesterday: 42 °F (at 1:21 pm)
Minimum temperature yesterday: 26 °F (at 11:53 pm)
Average temperature yesterday: 33 °F

High & Low Weather Summary for the Past Weeks

 TemperatureHumidityPressure
High53 °F (Jan 14, 2:53 pm)100% (Jan 5, 11:08 pm)30.66 "Hg (Jan 5, 11:08 pm)
Low11 °F (Jan 7, 2:53 am)29% (Jan 11, 10:53 am)29.51 "Hg (Jan 5, 7:53 pm)
Average36 °F77%30.06 "Hg
* Reported Jan 4 8:53 pm — Jan 19 8:53 pm, Shiprock, Weather by CustomWeather, © 2017

Note: Actual official high and low records may vary slightly from our data, if they occured in-between our weather recording intervals... More about our weather records

Advertising

Shiprock Weather History for the Previous 24 Hours

Scroll right to see more
 ConditionsComfort  
Time TempWeatherWind HumidityBarometerVisibility
8:53 pm
Thu, Jan 19
34 °FMostly cloudy.5 mph92%29.80 "Hg7 mi
8:12 pm34 °FMostly cloudy.6 mph92%29.77 "Hg7 mi
7:53 pm34 °FOvercast.5 mph92%29.83 "Hg8 mi
7:24 pm34 °FMostly cloudy.3 mph97%29.79 "Hg8 mi
6:57 pm34 °FMostly cloudy.No wind97%29.79 "Hg9 mi
6:38 pm34 °FOvercast.3 mph92%29.80 "Hg9 mi
6:08 pm33 °FOvercast.6 mph96%29.77 "Hg10 mi
5:53 pm34 °FLight snow. Mostly cloudy.No wind88%29.85 "Hg7 mi
4:53 pm35 °FLight rain. Mostly cloudy.5 mph88%29.85 "Hg10 mi
3:53 pm37 °FMore clouds than sun.8 mph79%29.84 "Hg10 mi
3:29 pm39 °FLight rain. Mostly cloudy.8 mph70%29.80 "Hg10 mi
2:53 pm40 °FOvercast.6 mph65%29.83 "Hg10 mi
1:53 pm41 °FOvercast.6 mph60%29.83 "Hg10 mi
12:53 pm41 °FOvercast.No wind58%29.84 "Hg10 mi
11:53 am40 °FOvercast.7 mph68%29.89 "Hg10 mi
10:53 am36 °FSunny.9 mph79%29.95 "Hg10 mi
9:53 am32 °FSunny.8 mph82%29.98 "Hg10 mi
8:53 am29 °FSunny.9 mph85%29.99 "Hg10 mi
7:53 am25 °FSunny.7 mph92%29.98 "Hg10 mi
6:53 am24 °FClear.6 mph91%29.97 "Hg10 mi
5:53 am24 °FClear.8 mph91%29.96 "Hg10 mi
4:53 am23 °FClear.3 mph96%29.97 "Hg10 mi
3:53 am24 °FClear.3 mph91%29.97 "Hg10 mi
2:53 am24 °FClear.No wind91%29.97 "Hg10 mi
1:53 am25 °FClear.6 mph88%29.98 "Hg10 mi
12:53 am26 °FClear.3 mph92%29.99 "Hg10 mi
11:53 pm
Wed, Jan 18
26 °FClear.5 mph92%30.01 "Hg10 mi
10:53 pm30 °FClear.No wind85%30.04 "Hg10 mi
Weather by CustomWeather, © 2017

See weather overviewHow to use our weather pages